Year,Month,Day,Hour,Minute,Value (Times are PST for temperature in C)
2006,06,29,00,00,13.10
2006,06,29,00,01,13.10
2006,06,29,00,02,13.10
2006,06,29,00,03,13.10
2006,06,29,00,04,13.00
2006,06,29,00,05,13.00
2006,06,29,00,06,13.00
2006,06,29,00,07,13.00
2006,06,29,00,08,12.90
2006,06,29,00,09,12.90
2006,06,29,00,10,12.90
2006,06,29,00,11,12.90
2006,06,29,00,12,12.80
2006,06,29,00,13,12.80
2006,06,29,00,14,12.80
2006,06,29,00,15,12.80
2006,06,29,00,16,12.80
2006,06,29,00,17,12.80
2006,06,29,00,18,12.80
2006,06,29,00,19,12.80
2006,06,29,00,20,12.80
2006,06,29,00,21,12.80
2006,06,29,00,22,12.80
2006,06,29,00,23,12.80
2006,06,29,00,24,12.80
2006,06,29,00,25,12.70
2006,06,29,00,26,12.70
2006,06,29,00,27,12.70
2006,06,29,00,28,12.70
2006,06,29,00,29,12.60
2006,06,29,00,30,12.60
2006,06,29,00,31,12.60
2006,06,29,00,32,12.60
2006,06,29,00,33,12.50
2006,06,29,00,34,12.50
2006,06,29,00,35,12.50
2006,06,29,00,36,12.50
2006,06,29,00,37,12.40
2006,06,29,00,38,12.40
2006,06,29,00,39,12.40
2006,06,29,00,40,12.40
2006,06,29,00,41,12.40
2006,06,29,00,42,12.40
2006,06,29,00,43,12.40
2006,06,29,00,44,12.40
2006,06,29,00,45,12.40
2006,06,29,00,46,12.40
2006,06,29,00,47,12.40
2006,06,29,00,48,12.30
2006,06,29,00,49,12.30
2006,06,29,00,50,12.30
2006,06,29,00,51,12.30
2006,06,29,00,52,12.30
2006,06,29,00,53,12.30
2006,06,29,00,54,12.30
2006,06,29,00,55,12.30
2006,06,29,00,56,12.30
2006,06,29,00,57,12.30
2006,06,29,00,58,12.30
2006,06,29,00,59,12.30
2006,06,29,01,00,12.20
2006,06,29,01,01,12.20
2006,06,29,01,02,12.20
2006,06,29,01,03,12.20
2006,06,29,01,04,12.20
2006,06,29,01,05,12.10
2006,06,29,01,06,12.10
2006,06,29,01,07,12.10
2006,06,29,01,08,12.10
2006,06,29,01,09,12.10
2006,06,29,01,10,12.10
2006,06,29,01,11,12.00
2006,06,29,01,12,12.00
2006,06,29,01,13,12.00
2006,06,29,01,14,12.00
2006,06,29,01,15,12.00
2006,06,29,01,16,11.90
2006,06,29,01,17,11.90
2006,06,29,01,18,11.90
2006,06,29,01,19,11.90
2006,06,29,01,20,11.90
2006,06,29,01,21,11.90
2006,06,29,01,22,11.90
2006,06,29,01,23,11.90
2006,06,29,01,24,11.90
2006,06,29,01,25,11.90
2006,06,29,01,26,11.90
2006,06,29,01,27,11.90
2006,06,29,01,28,11.90
2006,06,29,01,29,11.90
2006,06,29,01,30,12.00
2006,06,29,01,31,12.00
2006,06,29,01,32,12.10
2006,06,29,01,33,12.20
2006,06,29,01,34,12.30
2006,06,29,01,35,12.30
2006,06,29,01,36,12.30
2006,06,29,01,37,12.30
2006,06,29,01,38,12.30
2006,06,29,01,39,12.30
2006,06,29,01,40,12.20
2006,06,29,01,41,12.20
2006,06,29,01,42,12.20
2006,06,29,01,43,12.10
2006,06,29,01,44,12.10
2006,06,29,01,45,12.10
2006,06,29,01,46,12.10
2006,06,29,01,47,12.00
2006,06,29,01,48,12.00
2006,06,29,01,49,12.00
2006,06,29,01,50,11.90
2006,06,29,01,51,11.90
2006,06,29,01,52,11.90
2006,06,29,01,53,11.80
2006,06,29,01,54,11.80
2006,06,29,01,55,11.80
2006,06,29,01,56,11.80
2006,06,29,01,57,11.80
2006,06,29,01,58,11.70
2006,06,29,01,59,11.70
2006,06,29,02,00,11.70
2006,06,29,02,01,11.70
2006,06,29,02,02,11.60
2006,06,29,02,03,11.60
2006,06,29,02,04,11.60
2006,06,29,02,05,11.60
2006,06,29,02,06,11.60
2006,06,29,02,07,11.60
2006,06,29,02,08,11.60
2006,06,29,02,09,11.60
2006,06,29,02,10,11.70
2006,06,29,02,11,11.70
2006,06,29,02,12,11.70
2006,06,29,02,13,11.70
2006,06,29,02,14,11.70
2006,06,29,02,15,11.70
2006,06,29,02,16,11.60
2006,06,29,02,17,11.60
2006,06,29,02,18,11.60
2006,06,29,02,19,11.60
2006,06,29,02,20,11.60
2006,06,29,02,21,11.60
2006,06,29,02,22,11.60
2006,06,29,02,23,11.60
2006,06,29,02,24,11.50
2006,06,29,02,25,11.40
2006,06,29,02,26,11.40
2006,06,29,02,27,11.40
2006,06,29,02,28,11.40
2006,06,29,02,29,11.40
2006,06,29,02,30,11.40
2006,06,29,02,31,11.40
2006,06,29,02,32,11.30
2006,06,29,02,33,11.30
2006,06,29,02,34,11.30
2006,06,29,02,35,11.30
2006,06,29,02,36,11.20
2006,06,29,02,37,11.20
2006,06,29,02,38,11.20
2006,06,29,02,39,11.20
2006,06,29,02,40,11.10
2006,06,29,02,41,11.10
2006,06,29,02,42,11.10
2006,06,29,02,43,11.10
2006,06,29,02,44,11.10
2006,06,29,02,45,11.10
2006,06,29,02,46,11.00
2006,06,29,02,47,10.90
2006,06,29,02,48,10.90
2006,06,29,02,49,10.90
2006,06,29,02,50,10.90
2006,06,29,02,51,10.90
2006,06,29,02,52,10.90
2006,06,29,02,53,10.90
2006,06,29,02,54,10.90
2006,06,29,02,55,10.90
2006,06,29,02,56,10.90
2006,06,29,02,57,10.90
2006,06,29,02,58,10.90
2006,06,29,02,59,10.90
2006,06,29,03,00,10.90
2006,06,29,03,01,10.90
2006,06,29,03,02,10.90
2006,06,29,03,03,10.90
2006,06,29,03,04,10.90
2006,06,29,03,05,10.90
2006,06,29,03,06,10.90
2006,06,29,03,07,10.90
2006,06,29,03,08,10.90
2006,06,29,03,09,11.10
2006,06,29,03,10,11.10
2006,06,29,03,11,11.10
2006,06,29,03,12,11.10
2006,06,29,03,13,11.00
2006,06,29,03,14,10.90
2006,06,29,03,15,10.90
2006,06,29,03,16,10.90
2006,06,29,03,17,10.90
2006,06,29,03,18,10.90
2006,06,29,03,19,10.90
2006,06,29,03,20,10.90
2006,06,29,03,21,10.90
2006,06,29,03,22,10.90
2006,06,29,03,23,10.90
2006,06,29,03,24,10.90
2006,06,29,03,25,10.90
2006,06,29,03,26,10.90
2006,06,29,03,27,10.80
2006,06,29,03,28,10.80
2006,06,29,03,29,10.80
2006,06,29,03,30,10.80
2006,06,29,03,31,10.70
2006,06,29,03,32,10.70
2006,06,29,03,33,10.70
2006,06,29,03,34,10.70
2006,06,29,03,35,10.60
2006,06,29,03,36,10.60
2006,06,29,03,37,10.60
2006,06,29,03,38,10.60
2006,06,29,03,39,10.60
2006,06,29,03,40,10.60
2006,06,29,03,41,10.60
2006,06,29,03,42,10.60
2006,06,29,03,43,10.60
2006,06,29,03,44,10.60
2006,06,29,03,45,10.60
2006,06,29,03,46,10.60
2006,06,29,03,47,10.60
2006,06,29,03,48,10.60
2006,06,29,03,49,10.60
2006,06,29,03,50,10.60
2006,06,29,03,51,10.60
2006,06,29,03,52,10.60
2006,06,29,03,53,10.60
2006,06,29,03,54,10.60
2006,06,29,03,55,10.60
2006,06,29,03,56,10.60
2006,06,29,03,57,10.60
2006,06,29,03,58,10.60
2006,06,29,03,59,10.60
2006,06,29,04,00,10.60
2006,06,29,04,01,10.60
2006,06,29,04,02,10.60
2006,06,29,04,03,10.60
2006,06,29,04,04,10.40
2006,06,29,04,05,10.40
2006,06,29,04,06,10.40
2006,06,29,04,07,10.40
2006,06,29,04,08,10.40
2006,06,29,04,09,10.40
2006,06,29,04,10,10.40
2006,06,29,04,11,10.40
2006,06,29,04,12,10.40
2006,06,29,04,13,10.40
2006,06,29,04,14,10.40
2006,06,29,04,15,10.40
2006,06,29,04,16,10.40
2006,06,29,04,17,10.40
2006,06,29,04,18,10.40
2006,06,29,04,19,10.40
2006,06,29,04,20,10.40
2006,06,29,04,21,10.40
2006,06,29,04,22,10.40
2006,06,29,04,23,10.40
2006,06,29,04,24,10.40
2006,06,29,04,25,10.30
2006,06,29,04,26,10.30
2006,06,29,04,27,10.30
2006,06,29,04,28,10.20
2006,06,29,04,29,10.20
2006,06,29,04,30,10.20
2006,06,29,04,31,10.20
2006,06,29,04,32,10.20
2006,06,29,04,33,10.20
2006,06,29,04,34,10.20
2006,06,29,04,35,10.20
2006,06,29,04,36,10.20
2006,06,29,04,37,10.20
2006,06,29,04,38,10.20
2006,06,29,04,39,10.20
2006,06,29,04,40,10.10
2006,06,29,04,41,10.10
2006,06,29,04,42,10.10
2006,06,29,04,43,10.10
2006,06,29,04,44,10.10
2006,06,29,04,45,10.10
2006,06,29,04,46,10.10
2006,06,29,04,47,10.10
2006,06,29,04,48,10.10
2006,06,29,04,49,10.10
2006,06,29,04,50,10.10
2006,06,29,04,51,10.10
2006,06,29,04,52,10.10
2006,06,29,04,53,10.10
2006,06,29,04,54,10.10
2006,06,29,04,55,10.10
2006,06,29,04,56,10.10
2006,06,29,04,57,10.10
2006,06,29,04,58,10.10
2006,06,29,04,59,10.10
2006,06,29,05,00,10.00
2006,06,29,05,01,9.90
2006,06,29,05,02,9.90
2006,06,29,05,03,9.90
2006,06,29,05,04,9.90
2006,06,29,05,05,9.90
2006,06,29,05,06,9.90
2006,06,29,05,07,9.90
2006,06,29,05,08,9.90
2006,06,29,05,09,9.90
2006,06,29,05,10,9.90
2006,06,29,05,11,9.90
2006,06,29,05,12,9.90
2006,06,29,05,13,9.90
2006,06,29,05,14,9.90
2006,06,29,05,15,9.90
2006,06,29,05,16,9.90
2006,06,29,05,17,9.90
2006,06,29,05,18,9.90
2006,06,29,05,19,9.90
2006,06,29,05,20,9.90
2006,06,29,05,21,9.90
2006,06,29,05,22,9.90
2006,06,29,05,23,9.90
2006,06,29,05,24,9.90
2006,06,29,05,25,9.90
2006,06,29,05,26,9.90
2006,06,29,05,27,9.90
2006,06,29,05,28,9.90
2006,06,29,05,29,9.90
2006,06,29,05,30,9.90
2006,06,29,05,31,9.80
2006,06,29,05,32,9.80
2006,06,29,05,33,9.80
2006,06,29,05,34,9.80
2006,06,29,05,35,9.80
2006,06,29,05,36,9.80
2006,06,29,05,37,9.80
2006,06,29,05,38,9.80
2006,06,29,05,39,9.80
2006,06,29,05,40,9.80
2006,06,29,05,41,9.80
2006,06,29,05,42,9.80
2006,06,29,05,43,9.80
2006,06,29,05,44,9.80
2006,06,29,05,45,9.80
2006,06,29,05,46,9.80
2006,06,29,05,47,9.80
2006,06,29,05,48,9.80
2006,06,29,05,49,9.80
2006,06,29,05,50,9.80
2006,06,29,05,51,9.80
2006,06,29,05,52,9.80
2006,06,29,05,53,9.80
2006,06,29,05,54,9.90
2006,06,29,05,55,9.90
2006,06,29,05,56,10.00
2006,06,29,05,57,10.10
2006,06,29,05,58,10.10
2006,06,29,05,59,10.20
2006,06,29,06,00,10.20
2006,06,29,06,01,10.30
2006,06,29,06,02,10.40
2006,06,29,06,03,10.40
2006,06,29,06,04,10.50
2006,06,29,06,05,10.60
2006,06,29,06,06,10.60
2006,06,29,06,07,10.60
2006,06,29,06,08,10.70
2006,06,29,06,09,10.70
2006,06,29,06,10,10.80
2006,06,29,06,11,10.90
2006,06,29,06,12,10.90
2006,06,29,06,13,10.90
2006,06,29,06,14,11.00
2006,06,29,06,15,11.10
2006,06,29,06,16,11.10
2006,06,29,06,17,11.20
2006,06,29,06,18,11.20
2006,06,29,06,19,11.30
2006,06,29,06,20,11.30
2006,06,29,06,21,11.40
2006,06,29,06,22,11.40
2006,06,29,06,23,11.50
2006,06,29,06,24,11.60
2006,06,29,06,25,11.60
2006,06,29,06,26,11.60
2006,06,29,06,27,11.60
2006,06,29,06,28,11.60
2006,06,29,06,29,11.70
2006,06,29,06,30,11.70
2006,06,29,06,31,11.80
2006,06,29,06,32,11.80
2006,06,29,06,33,11.80
2006,06,29,06,34,11.90
2006,06,29,06,35,12.00
2006,06,29,06,36,12.00
2006,06,29,06,37,12.10
2006,06,29,06,38,12.20
2006,06,29,06,39,12.20
2006,06,29,06,40,12.30
2006,06,29,06,41,12.30
2006,06,29,06,42,12.30
2006,06,29,06,43,12.40
2006,06,29,06,44,12.50
2006,06,29,06,45,12.50
2006,06,29,06,46,12.50
2006,06,29,06,47,12.60
2006,06,29,06,48,12.60
2006,06,29,06,49,12.70
2006,06,29,06,50,12.70
2006,06,29,06,51,12.80
2006,06,29,06,52,12.80
2006,06,29,06,53,12.80
2006,06,29,06,54,12.80
2006,06,29,06,55,12.80
2006,06,29,06,56,12.90
2006,06,29,06,57,13.10
2006,06,29,06,58,13.20
2006,06,29,06,59,13.30
2006,06,29,07,00,13.40
2006,06,29,07,01,13.50
2006,06,29,07,02,13.60
2006,06,29,07,03,13.60
2006,06,29,07,04,13.70
2006,06,29,07,05,13.70
2006,06,29,07,06,13.80
2006,06,29,07,07,13.90
2006,06,29,07,08,13.90
2006,06,29,07,09,14.00
2006,06,29,07,10,14.00
2006,06,29,07,11,14.10
2006,06,29,07,12,14.10
2006,06,29,07,13,14.20
2006,06,29,07,14,14.20
2006,06,29,07,15,14.20
2006,06,29,07,16,14.30
2006,06,29,07,17,14.30
2006,06,29,07,18,14.40
2006,06,29,07,19,14.50
2006,06,29,07,20,14.50
2006,06,29,07,21,14.60
2006,06,29,07,22,14.60
2006,06,29,07,23,14.60
2006,06,29,07,24,14.60
2006,06,29,07,25,14.60
2006,06,29,07,26,14.60
2006,06,29,07,27,14.80
2006,06,29,07,28,14.80
2006,06,29,07,29,14.90
2006,06,29,07,30,14.90
2006,06,29,07,31,15.00
2006,06,29,07,32,15.10
2006,06,29,07,33,15.10
2006,06,29,07,34,15.20
2006,06,29,07,35,15.20
2006,06,29,07,36,15.30
2006,06,29,07,37,15.30
2006,06,29,07,38,15.30
2006,06,29,07,39,15.40
2006,06,29,07,40,15.40
2006,06,29,07,41,15.50
2006,06,29,07,42,15.50
2006,06,29,07,43,15.60
2006,06,29,07,44,15.70
2006,06,29,07,45,15.80
2006,06,29,07,46,15.80
2006,06,29,07,47,15.90
2006,06,29,07,48,15.90
2006,06,29,07,49,15.90
2006,06,29,07,50,16.10
2006,06,29,07,51,16.10
2006,06,29,07,52,16.10
2006,06,29,07,53,16.20
2006,06,29,07,54,16.20
2006,06,29,07,55,16.30
2006,06,29,07,56,16.30
2006,06,29,07,57,16.30
2006,06,29,07,58,16.40
2006,06,29,07,59,16.40
2006,06,29,08,00,16.40
2006,06,29,08,01,16.40
2006,06,29,08,02,16.40
2006,06,29,08,03,16.60
2006,06,29,08,04,16.60
2006,06,29,08,05,16.70
2006,06,29,08,06,16.70
2006,06,29,08,07,16.80
2006,06,29,08,08,16.80
2006,06,29,08,09,16.90
2006,06,29,08,10,16.90
2006,06,29,08,11,16.90
2006,06,29,08,12,17.00
2006,06,29,08,13,17.10
2006,06,29,08,14,17.20
2006,06,29,08,15,17.30
2006,06,29,08,16,17.40
2006,06,29,08,17,17.40
2006,06,29,08,18,17.40
2006,06,29,08,19,17.50
2006,06,29,08,20,17.50
2006,06,29,08,21,17.60
2006,06,29,08,22,17.70
2006,06,29,08,23,17.80
2006,06,29,08,24,17.90
2006,06,29,08,25,18.00
2006,06,29,08,26,18.10
2006,06,29,08,27,18.10
2006,06,29,08,28,18.20
2006,06,29,08,29,18.20
2006,06,29,08,30,18.30
2006,06,29,08,31,18.20
2006,06,29,08,32,18.20
2006,06,29,08,33,18.20
2006,06,29,08,34,18.20
2006,06,29,08,35,18.20
2006,06,29,08,36,18.20
2006,06,29,08,37,18.20
2006,06,29,08,38,18.30
2006,06,29,08,39,18.40
2006,06,29,08,40,18.50
2006,06,29,08,41,18.60
2006,06,29,08,42,18.80
2006,06,29,08,43,18.90
2006,06,29,08,44,18.90
2006,06,29,08,45,18.90
2006,06,29,08,46,18.80
2006,06,29,08,47,18.70
2006,06,29,08,48,18.70
2006,06,29,08,49,18.80
2006,06,29,08,50,18.90
2006,06,29,08,51,18.90
2006,06,29,08,52,19.10
2006,06,29,08,53,19.20
2006,06,29,08,54,19.40
2006,06,29,08,55,19.50
2006,06,29,08,56,19.60
2006,06,29,08,57,19.80
2006,06,29,08,58,19.80
2006,06,29,08,59,19.80
2006,06,29,09,00,19.90
2006,06,29,09,01,19.90
2006,06,29,09,02,20.00
2006,06,29,09,03,20.10
2006,06,29,09,04,20.10
2006,06,29,09,05,20.20
2006,06,29,09,06,20.20
2006,06,29,09,07,20.20
2006,06,29,09,08,20.20
2006,06,29,09,09,20.20
2006,06,29,09,10,20.20
2006,06,29,09,11,20.30
2006,06,29,09,12,20.30
2006,06,29,09,13,20.30
2006,06,29,09,14,20.30
2006,06,29,09,15,20.30
2006,06,29,09,16,20.20
2006,06,29,09,17,20.20
2006,06,29,09,18,20.20
2006,06,29,09,19,20.20
2006,06,29,09,20,20.30
2006,06,29,09,21,20.40
2006,06,29,09,22,20.60
2006,06,29,09,23,20.70
2006,06,29,09,24,20.80
2006,06,29,09,25,20.90
2006,06,29,09,26,20.90
2006,06,29,09,27,20.80
2006,06,29,09,28,20.70
2006,06,29,09,29,20.70
2006,06,29,09,30,20.70
2006,06,29,09,31,20.60
2006,06,29,09,32,20.60
2006,06,29,09,33,20.60
2006,06,29,09,34,20.50
2006,06,29,09,35,20.40
2006,06,29,09,36,20.50
2006,06,29,09,37,20.60
2006,06,29,09,38,20.60
2006,06,29,09,39,20.60
2006,06,29,09,40,20.60
2006,06,29,09,41,20.60
2006,06,29,09,42,20.70
2006,06,29,09,43,20.70
2006,06,29,09,44,20.70
2006,06,29,09,45,20.50
2006,06,29,09,46,20.50
2006,06,29,09,47,20.50
2006,06,29,09,48,20.50
2006,06,29,09,49,20.60
2006,06,29,09,50,20.70
2006,06,29,09,51,20.80
2006,06,29,09,52,20.90
2006,06,29,09,53,20.80
2006,06,29,09,54,20.80
2006,06,29,09,55,20.80
2006,06,29,09,56,20.70
2006,06,29,09,57,20.70
2006,06,29,09,58,20.70
2006,06,29,09,59,20.70
2006,06,29,10,00,20.70
2006,06,29,10,01,20.70
2006,06,29,10,02,20.70
2006,06,29,10,03,20.70
2006,06,29,10,04,20.80
2006,06,29,10,05,20.90
2006,06,29,10,06,20.80
2006,06,29,10,07,20.90
2006,06,29,10,08,20.90
2006,06,29,10,09,21.00
2006,06,29,10,10,21.00
2006,06,29,10,11,21.00
2006,06,29,10,12,21.10
2006,06,29,10,13,21.10
2006,06,29,10,14,21.00
2006,06,29,10,15,20.90
2006,06,29,10,16,20.90
2006,06,29,10,17,20.90
2006,06,29,10,18,21.00
2006,06,29,10,19,21.00
2006,06,29,10,20,21.10
2006,06,29,10,21,21.20
2006,06,29,10,22,21.20
2006,06,29,10,23,21.20
2006,06,29,10,24,21.30
2006,06,29,10,25,21.30
2006,06,29,10,26,21.30
2006,06,29,10,27,21.30
2006,06,29,10,28,21.20
2006,06,29,10,29,21.10
2006,06,29,10,30,21.10
2006,06,29,10,31,21.20
2006,06,29,10,32,21.30
2006,06,29,10,33,21.30
2006,06,29,10,34,21.40
2006,06,29,10,35,21.50
2006,06,29,10,36,21.60
2006,06,29,10,37,21.50
2006,06,29,10,38,21.40
2006,06,29,10,39,21.50
2006,06,29,10,40,21.60
2006,06,29,10,41,21.50
2006,06,29,10,42,21.60
2006,06,29,10,43,21.60
2006,06,29,10,44,21.70
2006,06,29,10,45,21.80
2006,06,29,10,46,21.70
2006,06,29,10,47,21.60
2006,06,29,10,48,21.60
2006,06,29,10,49,21.30
2006,06,29,10,50,21.30
2006,06,29,10,51,21.50
2006,06,29,10,52,21.60
2006,06,29,10,53,21.70
2006,06,29,10,54,21.90
2006,06,29,10,55,21.90
2006,06,29,10,56,21.90
2006,06,29,10,57,21.90
2006,06,29,10,58,22.00
2006,06,29,10,59,22.00
2006,06,29,11,00,22.00
2006,06,29,11,01,21.90
2006,06,29,11,02,21.70
2006,06,29,11,03,21.70
2006,06,29,11,04,21.70
2006,06,29,11,05,21.80
2006,06,29,11,06,21.90
2006,06,29,11,07,22.00
2006,06,29,11,08,22.00
2006,06,29,11,09,21.90
2006,06,29,11,10,21.90
2006,06,29,11,11,21.90
2006,06,29,11,12,22.00
2006,06,29,11,13,22.00
2006,06,29,11,14,22.20
2006,06,29,11,15,22.30
2006,06,29,11,16,22.40
2006,06,29,11,17,22.50
2006,06,29,11,18,22.60
2006,06,29,11,19,22.70
2006,06,29,11,20,22.80
2006,06,29,11,21,22.50
2006,06,29,11,22,22.30
2006,06,29,11,23,22.00
2006,06,29,11,24,21.80
2006,06,29,11,25,21.60
2006,06,29,11,26,21.40
2006,06,29,11,27,21.30
2006,06,29,11,28,21.30
2006,06,29,11,29,21.10
2006,06,29,11,30,21.00
2006,06,29,11,31,21.00
2006,06,29,11,32,20.90
2006,06,29,11,33,20.90
2006,06,29,11,34,21.00
2006,06,29,11,35,21.00
2006,06,29,11,36,21.20
2006,06,29,11,37,20.90
2006,06,29,11,38,20.90
2006,06,29,11,39,21.00
2006,06,29,11,40,21.10
2006,06,29,11,41,21.00
2006,06,29,11,42,20.90
2006,06,29,11,43,20.80
2006,06,29,11,44,20.80
2006,06,29,11,45,20.80
2006,06,29,11,46,20.70
2006,06,29,11,47,20.60
2006,06,29,11,48,20.50
2006,06,29,11,49,20.50
2006,06,29,11,50,20.50
2006,06,29,11,51,20.70
2006,06,29,11,52,20.90
2006,06,29,11,53,21.00
2006,06,29,11,54,21.30
2006,06,29,11,55,21.20
2006,06,29,11,56,21.10
2006,06,29,11,57,21.10
2006,06,29,11,58,21.10
2006,06,29,11,59,21.20
2006,06,29,12,00,21.30
2006,06,29,12,01,21.30
2006,06,29,12,02,21.20
2006,06,29,12,03,21.10
2006,06,29,12,04,21.10
2006,06,29,12,05,21.20
2006,06,29,12,06,21.10
2006,06,29,12,07,21.20
2006,06,29,12,08,21.20
2006,06,29,12,09,21.20
2006,06,29,12,10,21.40
2006,06,29,12,11,21.60
2006,06,29,12,12,21.60
2006,06,29,12,13,21.60
2006,06,29,12,14,21.80
2006,06,29,12,15,21.90
2006,06,29,12,16,21.90
2006,06,29,12,17,21.70
2006,06,29,12,18,21.60
2006,06,29,12,19,21.60
2006,06,29,12,20,21.60
2006,06,29,12,21,21.80
2006,06,29,12,22,22.00
2006,06,29,12,23,22.20
2006,06,29,12,24,22.40
2006,06,29,12,25,22.40
2006,06,29,12,26,22.40
2006,06,29,12,27,22.20
2006,06,29,12,28,21.90
2006,06,29,12,29,21.70
2006,06,29,12,30,21.70
2006,06,29,12,31,21.90
2006,06,29,12,32,22.00
2006,06,29,12,33,21.90
2006,06,29,12,34,21.90
2006,06,29,12,35,22.00
2006,06,29,12,36,22.00
2006,06,29,12,37,22.10
2006,06,29,12,38,22.00
2006,06,29,12,39,22.00
2006,06,29,12,40,21.90
2006,06,29,12,41,22.00
2006,06,29,12,42,21.90
2006,06,29,12,43,22.00
2006,06,29,12,44,22.10
2006,06,29,12,45,22.30
2006,06,29,12,46,22.30
2006,06,29,12,47,22.40
2006,06,29,12,48,22.50
2006,06,29,12,49,22.70
2006,06,29,12,50,22.80
2006,06,29,12,51,22.80
2006,06,29,12,52,22.80
2006,06,29,12,53,22.80
2006,06,29,12,54,22.80
2006,06,29,12,55,22.70
2006,06,29,12,56,22.80
2006,06,29,12,57,22.90
2006,06,29,12,58,22.90
2006,06,29,12,59,22.80
2006,06,29,13,00,22.80
2006,06,29,13,01,22.70
2006,06,29,13,02,22.70
2006,06,29,13,03,22.70
2006,06,29,13,04,22.70
2006,06,29,13,05,22.70
2006,06,29,13,06,22.60
2006,06,29,13,07,22.50
2006,06,29,13,08,22.20
2006,06,29,13,09,21.90
2006,06,29,13,10,21.80
2006,06,29,13,11,21.90
2006,06,29,13,12,22.00
2006,06,29,13,13,22.00
2006,06,29,13,14,22.20
2006,06,29,13,15,22.30
2006,06,29,13,16,22.40
2006,06,29,13,17,22.30
2006,06,29,13,18,22.30
2006,06,29,13,19,22.40
2006,06,29,13,20,22.30
2006,06,29,13,21,22.10
2006,06,29,13,22,22.10
2006,06,29,13,23,22.00
2006,06,29,13,24,21.90
2006,06,29,13,25,21.90
2006,06,29,13,26,21.80
2006,06,29,13,27,22.00
2006,06,29,13,28,22.10
2006,06,29,13,29,22.40
2006,06,29,13,30,22.60
2006,06,29,13,31,22.50
2006,06,29,13,32,22.60
2006,06,29,13,33,22.60
2006,06,29,13,34,22.60
2006,06,29,13,35,22.60
2006,06,29,13,36,22.70
2006,06,29,13,37,22.60
2006,06,29,13,38,22.50
2006,06,29,13,39,22.10
2006,06,29,13,40,22.00
2006,06,29,13,41,22.00
2006,06,29,13,42,22.00
2006,06,29,13,43,21.90
2006,06,29,13,44,21.90
2006,06,29,13,45,21.80
2006,06,29,13,46,21.70
2006,06,29,13,47,21.80
2006,06,29,13,48,21.90
2006,06,29,13,49,22.00
2006,06,29,13,50,22.10
2006,06,29,13,51,22.20
2006,06,29,13,52,22.30
2006,06,29,13,53,22.50
2006,06,29,13,54,22.90
2006,06,29,13,55,22.90
2006,06,29,13,56,23.00
2006,06,29,13,57,23.20
2006,06,29,13,58,23.20
2006,06,29,13,59,23.00
2006,06,29,14,00,22.70
2006,06,29,14,01,22.50
2006,06,29,14,02,22.40
2006,06,29,14,03,22.30
2006,06,29,14,04,22.20
2006,06,29,14,05,22.30
2006,06,29,14,06,22.40
2006,06,29,14,07,22.30
2006,06,29,14,08,22.20
2006,06,29,14,09,22.20
2006,06,29,14,10,22.20
2006,06,29,14,11,22.30
2006,06,29,14,12,22.40
2006,06,29,14,13,22.50
2006,06,29,14,14,22.50
2006,06,29,14,15,22.60
2006,06,29,14,16,22.70
2006,06,29,14,17,22.70
2006,06,29,14,18,22.90
2006,06,29,14,19,23.00
2006,06,29,14,20,23.10
2006,06,29,14,21,23.20
2006,06,29,14,22,23.30
2006,06,29,14,23,23.20
2006,06,29,14,24,23.00
2006,06,29,14,25,22.80
2006,06,29,14,26,22.80
2006,06,29,14,27,22.80
2006,06,29,14,28,22.80
2006,06,29,14,29,22.70
2006,06,29,14,30,22.60
2006,06,29,14,31,22.70
2006,06,29,14,32,22.70
2006,06,29,14,33,22.80
2006,06,29,14,34,22.90
2006,06,29,14,35,23.10
2006,06,29,14,36,23.20
2006,06,29,14,37,23.30
2006,06,29,14,38,23.20
2006,06,29,14,39,23.30
2006,06,29,14,40,23.30
2006,06,29,14,41,23.60
2006,06,29,14,42,23.70
2006,06,29,14,43,23.80
2006,06,29,14,44,23.80
2006,06,29,14,45,23.70
2006,06,29,14,46,23.50
2006,06,29,14,47,23.40
2006,06,29,14,48,23.40
2006,06,29,14,49,23.40
2006,06,29,14,50,23.20
2006,06,29,14,51,23.00
2006,06,29,14,52,22.90
2006,06,29,14,53,23.00
2006,06,29,14,54,23.20
2006,06,29,14,55,23.50
2006,06,29,14,56,23.60
2006,06,29,14,57,23.60
2006,06,29,14,58,23.60
2006,06,29,14,59,23.70
2006,06,29,15,00,23.80
2006,06,29,15,01,23.90
2006,06,29,15,02,24.10
2006,06,29,15,03,24.10
2006,06,29,15,04,23.90
2006,06,29,15,05,23.70
2006,06,29,15,06,23.70
2006,06,29,15,07,23.70
2006,06,29,15,08,23.70
2006,06,29,15,09,23.90
2006,06,29,15,10,24.10
2006,06,29,15,11,24.10
2006,06,29,15,12,24.20
2006,06,29,15,13,24.30
2006,06,29,15,14,24.40
2006,06,29,15,15,24.50
2006,06,29,15,16,24.50
2006,06,29,15,17,24.60
2006,06,29,15,18,24.50
2006,06,29,15,19,24.30
2006,06,29,15,20,24.30
2006,06,29,15,21,24.10
2006,06,29,15,22,24.30
2006,06,29,15,23,24.50
2006,06,29,15,24,24.70
2006,06,29,15,25,24.90
2006,06,29,15,26,25.00
2006,06,29,15,27,25.00
2006,06,29,15,28,24.80
2006,06,29,15,29,24.60
2006,06,29,15,30,24.40
2006,06,29,15,31,24.20
2006,06,29,15,32,24.00
2006,06,29,15,33,23.90
2006,06,29,15,34,23.90
2006,06,29,15,35,24.00
2006,06,29,15,36,24.10
2006,06,29,15,37,24.10
2006,06,29,15,38,24.10
2006,06,29,15,39,24.20
2006,06,29,15,40,24.30
2006,06,29,15,41,24.40
2006,06,29,15,42,24.40
2006,06,29,15,43,24.50
2006,06,29,15,44,24.40
2006,06,29,15,45,24.30
2006,06,29,15,46,24.20
2006,06,29,15,47,24.10
2006,06,29,15,48,24.10
2006,06,29,15,49,24.10
2006,06,29,15,50,23.90
2006,06,29,15,51,23.90
2006,06,29,15,52,23.90
2006,06,29,15,53,24.00
2006,06,29,15,54,24.10
2006,06,29,15,55,24.40
2006,06,29,15,56,24.50
2006,06,29,15,57,24.60
2006,06,29,15,58,24.60
2006,06,29,15,59,24.70
2006,06,29,16,00,24.70
2006,06,29,16,01,24.70
2006,06,29,16,02,24.60
2006,06,29,16,03,24.50
2006,06,29,16,04,24.40
2006,06,29,16,05,24.30
2006,06,29,16,06,24.20
2006,06,29,16,07,24.20
2006,06,29,16,08,24.30
2006,06,29,16,09,24.40
2006,06,29,16,10,24.40
2006,06,29,16,11,24.40
2006,06,29,16,12,24.60
2006,06,29,16,13,24.80
2006,06,29,16,14,24.90
2006,06,29,16,15,24.90
2006,06,29,16,16,24.70
2006,06,29,16,17,24.60
2006,06,29,16,18,24.60
2006,06,29,16,19,24.60
2006,06,29,16,20,24.60
2006,06,29,16,21,24.60
2006,06,29,16,22,24.60
2006,06,29,16,23,24.60
2006,06,29,16,24,24.50
2006,06,29,16,25,24.60
2006,06,29,16,26,24.70
2006,06,29,16,27,24.70
2006,06,29,16,28,24.80
2006,06,29,16,29,24.80
2006,06,29,16,30,24.90
2006,06,29,16,31,25.10
2006,06,29,16,32,25.10
2006,06,29,16,33,25.10
2006,06,29,16,34,25.20
2006,06,29,16,35,25.20
2006,06,29,16,36,25.20
2006,06,29,16,37,25.20
2006,06,29,16,38,25.20
2006,06,29,16,39,25.30
2006,06,29,16,40,25.30
2006,06,29,16,41,25.10
2006,06,29,16,42,25.10
2006,06,29,16,43,25.10
2006,06,29,16,44,25.20
2006,06,29,16,45,25.20
2006,06,29,16,46,25.30
2006,06,29,16,47,25.20
2006,06,29,16,48,25.00
2006,06,29,16,49,25.00
2006,06,29,16,50,24.90
2006,06,29,16,51,24.90
2006,06,29,16,52,24.90
2006,06,29,16,53,24.80
2006,06,29,16,54,24.70
2006,06,29,16,55,24.60
2006,06,29,16,56,24.70
2006,06,29,16,57,24.70
2006,06,29,16,58,24.60
2006,06,29,16,59,24.40
2006,06,29,17,00,24.20
2006,06,29,17,01,24.00
2006,06,29,17,02,23.80
2006,06,29,17,03,23.90
2006,06,29,17,04,23.90
2006,06,29,17,05,23.80
2006,06,29,17,06,23.80
2006,06,29,17,07,23.70
2006,06,29,17,08,23.70
2006,06,29,17,09,23.70
2006,06,29,17,10,23.70
2006,06,29,17,11,23.70
2006,06,29,17,12,23.80
2006,06,29,17,13,23.80
2006,06,29,17,14,23.80
2006,06,29,17,15,23.90
2006,06,29,17,16,24.00
2006,06,29,17,17,24.10
2006,06,29,17,18,24.10
2006,06,29,17,19,24.10
2006,06,29,17,20,24.20
2006,06,29,17,21,24.20